This is the latest recevied weather packets stored in our database for station/object KD4PMP. If no packets are shown the sender has not sent any weather packets the latest 10 day(s).
| Time | Temp. | Humidity | Pressure | Rain* | Wind** | Luminosity | Snow |
|---|---|---|---|---|---|---|---|
| 1788131788 | 34.44° C | 55% | 1015.7 hPa | 0 mm | - | - | - |
| 1788131182 | 35° C | 54% | 1015.8 hPa | 0 mm | - | - | - |
| 1788130576 | 35° C | 54% | 1015.7 hPa | 0 mm | - | - | - |
| 1788129969 | 35.56° C | 53% | 1015.7 hPa | 0 mm | - | - | - |
| 1788129363 | 35.56° C | 53% | 1015.7 hPa | 0 mm | - | - | - |
| 1788128757 | 35.56° C | 53% | 1015.7 hPa | 0 mm | - | - | - |
| 1788128151 | 35.56° C | 52% | 1015.6 hPa | 0 mm | - | - | - |
| 1788127544 | 35.56° C | 52% | 1015.7 hPa | 0 mm | - | - | - |
| 1788126938 | 35.56° C | 52% | 1015.6 hPa | 0 mm | - | - | - |
| 1788126332 | 36.11° C | 52% | 1015.5 hPa | 0 mm | - | - | - |
| 1788125726 | 36.11° C | 52% | 1015.5 hPa | 0 mm | - | - | - |
| 1788125119 | 36.11° C | 49% | 1015.5 hPa | 0 mm | - | - | - |
| 1788124513 | 35.56° C | 51% | 1015.4 hPa | 0 mm | - | - | - |
| 1788123906 | 35.56° C | 50% | 1015.6 hPa | 0 mm | - | - | - |
| 1788123300 | 36.11° C | 53% | 1015.7 hPa | 0 mm | - | - | - |
| 1788122694 | 36.11° C | 52% | 1015.7 hPa | 0 mm | - | - | - |
| 1788122087 | 36.11° C | 52% | 1016 hPa | 0 mm | - | - | - |
| 1788121481 | 35.56° C | 53% | 1016.2 hPa | 0 mm | - | - | - |
| 1788120875 | 35° C | 53% | 1016.4 hPa | 0 mm | - | - | - |
| 1788120269 | 35° C | 54% | 1016.6 hPa | 0 mm | - | - | - |
| 1788119662 | 35° C | 54% | 1016.7 hPa | 0 mm | - | - | - |
| 1788119056 | 35.56° C | 53% | 1016.7 hPa | 0 mm | - | - | - |
| 1788118449 | 35.56° C | 54% | 1016.8 hPa | 0 mm | - | - | - |
| 1788117843 | 35.56° C | 52% | 1016.9 hPa | 0 mm | - | - | - |
| 1788117237 | 35° C | 55% | 1017.1 hPa | 0 mm | - | - | - |
* Rain latest hour (hover to see other rain measurements)
** Current wind speed in m/s (hover to see current wind gust speed)